Weather History for St. James, MN

Change the Weather History Date:

Friday, January 18, 2013

  Actual Average Record
Temperature  
Mean Temperature 36 °F -  
Max Temperature 46 °F 22 °F 50 °F (1964)
Min Temperature 26 °F 5 °F -27 °F (1970)
Degree Days  
Heating Degree Days 29    
Moisture  
Dew Point 26 °F    
Average Humidity 65    
Maximum Humidity 80    
Minimum Humidity 46    
Precipitation  
Precipitation 0.00 in - - ()
Sea Level Pressure  
Sea Level Pressure 29.89 in    
Wind  
Wind Speed 10 mph (SSW)    
Max Wind Speed 21 mph    
Max Gust Speed 30 mph    
Visibility 10 miles    
Events      
Averages and records for this station are not official NWS values.
T = Trace of Precipitation, MM = Missing Value Source: NWS Daily Summary

Daily Weather History Graph

Daily Weather History Graph

Search for Another Location

Airport:

Trip Planner

Search our weather history database for the weather conditions in past years. The results will help you decide how hot, cold, wet, or windy it might be!

Date:

Astronomy

Jan. 18, 2013 Rise Set
Actual Time 7:47 AM CST 5:10 PM CST
Civil Twilight 7:15 AM CST 5:42 PM CST
Nautical Twilight 6:40 AM CST 6:17 PM CST
Astronomical Twilight 6:06 AM CST 6:51 PM CST
Moon 11:09 AM CST (1/18) 12:17 AM CST (1/18)
Length of Visible Light 10h 26m
Length of Day
9h 22m
Waxing Crescent, 47% of the Moon is Illuminated
Jan 18
Waxing Crescent
Jan 18
First Quarter
Jan 26
Full
Feb 3
Last Quarter
Feb 10
New

Hourly Weather History & Observations

Time (CST) Temp. Windchill Dew Point Humidity Pressure Visibility Wind Dir Wind Speed Gust Speed Precip Events Conditions
12:14 AM 26.6 °F 16.8 °F 17.6 °F 69% 30.22 in 10.0 mi SE 10.4 mph - N/A   Mostly Cloudy
12:35 AM 26.6 °F 16.8 °F 17.6 °F 69% 30.21 in 10.0 mi SE 10.4 mph - N/A   Overcast
12:55 AM 26.6 °F 16.8 °F 17.6 °F 69% 30.20 in 10.0 mi ESE 10.4 mph - N/A   Overcast
1:14 AM 26.6 °F 16.2 °F 17.6 °F 69% 30.18 in 10.0 mi SE 11.5 mph - N/A   Scattered Clouds
1:35 AM 26.6 °F 16.2 °F 17.6 °F 69% 30.17 in 10.0 mi SE 11.5 mph - N/A   Clear
1:55 AM 26.6 °F 16.2 °F 17.6 °F 69% 30.15 in 10.0 mi SE 11.5 mph - N/A   Clear
2:15 AM 26.6 °F 15.2 °F 19.4 °F 74% 30.13 in 10.0 mi SE 13.8 mph - N/A   Clear
2:35 AM 28.4 °F 17.5 °F 19.4 °F 69% 30.11 in 10.0 mi SE 13.8 mph - N/A   Clear
2:55 AM 28.4 °F 17.5 °F 19.4 °F 69% 30.09 in 10.0 mi SE 13.8 mph - N/A   Clear
3:15 AM 30.2 °F 20.2 °F 21.2 °F 69% 30.08 in 10.0 mi SSE 12.7 mph - N/A   Clear
3:34 AM 30.2 °F 19.8 °F 23.0 °F 75% 30.06 in 10.0 mi SSE 13.8 mph - N/A   Clear
3:55 AM 30.2 °F 18.9 °F 24.8 °F 80% 30.03 in 10.0 mi South 16.1 mph 21.9 mph N/A   Clear
4:15 AM 30.2 °F 18.5 °F 24.8 °F 80% 30.01 in 10.0 mi South 17.3 mph 23.0 mph N/A   Clear
4:35 AM 32.0 °F 20.8 °F 24.8 °F 75% 30.00 in 7.0 mi South 17.3 mph 26.5 mph N/A   Clear
4:55 AM 30.2 °F 18.1 °F 24.8 °F 80% 29.98 in 7.0 mi South 18.4 mph 24.2 mph N/A   Clear
5:15 AM 30.2 °F 18.9 °F 24.8 °F 80% 29.96 in 7.0 mi South 16.1 mph - N/A   Clear
5:35 AM 32.0 °F 20.8 °F 24.8 °F 75% 29.94 in 7.0 mi South 17.3 mph - N/A   Clear
5:55 AM 33.8 °F 22.8 °F 26.6 °F 75% 29.93 in 10.0 mi South 18.4 mph - N/A   Clear
6:14 AM 33.8 °F 22.8 °F 26.6 °F 75% 29.91 in 10.0 mi South 18.4 mph - N/A   Clear
6:35 AM 33.8 °F 24.8 °F 26.6 °F 75% 29.91 in 10.0 mi South 12.7 mph - N/A   Clear
6:55 AM 33.8 °F - 26.6 °F 75% 29.92 in 10.0 mi Calm Calm - N/A   Clear
7:15 AM 33.8 °F 25.3 °F 26.6 °F 75% 29.90 in 10.0 mi South 11.5 mph - N/A   Clear
7:35 AM 35.6 °F - 26.6 °F 70% 29.90 in 10.0 mi Calm Calm - N/A   Clear
7:55 AM 35.6 °F - 26.6 °F 70% 29.90 in 10.0 mi Calm Calm - N/A   Clear
8:14 AM 35.6 °F 28.0 °F 26.6 °F 70% 29.88 in 10.0 mi South 10.4 mph - N/A   Clear
8:35 AM 33.8 °F - 24.8 °F 70% 29.88 in 10.0 mi Calm Calm - N/A   Clear
8:55 AM 35.6 °F - 26.6 °F 70% 29.88 in 10.0 mi Calm Calm - N/A   Clear
9:15 AM 37.4 °F - 26.6 °F 65% 29.87 in 10.0 mi Calm Calm - N/A   Clear
9:35 AM 39.2 °F 32.0 °F 26.6 °F 61% 29.86 in 10.0 mi SSW 11.5 mph 16.1 mph N/A   Clear
9:55 AM 39.2 °F 32.0 °F 26.6 °F 61% 29.85 in 10.0 mi SSW 11.5 mph 17.3 mph N/A   Clear
10:15 AM 41.0 °F 34.7 °F 26.6 °F 57% 29.84 in 10.0 mi SSW 10.4 mph 18.4 mph N/A   Clear
10:35 AM 42.8 °F 36.2 °F 26.6 °F 53% 29.83 in 10.0 mi SSW 12.7 mph 16.1 mph N/A   Clear
10:54 AM 42.8 °F 35.8 °F 26.6 °F 53% 29.82 in 10.0 mi SSW 13.8 mph 19.6 mph N/A   Clear
11:15 AM 42.8 °F 35.8 °F 26.6 °F 53% 29.81 in 10.0 mi SSW 13.8 mph 23.0 mph N/A   Clear
11:35 AM 44.6 °F 36.4 °F 26.6 °F 49% 29.80 in 10.0 mi SW 20.7 mph 27.6 mph N/A   Clear
11:55 AM 44.6 °F 36.4 °F 26.6 °F 49% 29.79 in 10.0 mi SW 20.7 mph 29.9 mph N/A   Clear
12:15 PM 44.6 °F 36.6 °F 26.6 °F 49% 29.78 in 10.0 mi SSW 19.6 mph 26.5 mph N/A   Clear
12:35 PM 44.6 °F 37.2 °F 26.6 °F 49% 29.77 in 10.0 mi SW 17.3 mph 24.2 mph N/A   Clear
12:55 PM 46.4 °F 39.8 °F 28.4 °F 50% 29.76 in 10.0 mi SW 16.1 mph 25.3 mph N/A   Clear
1:15 PM 46.4 °F 40.7 °F 28.4 °F 50% 29.78 in 10.0 mi WSW 12.7 mph - N/A   Clear
1:35 PM 46.4 °F 40.1 °F 26.6 °F 46% 29.77 in 10.0 mi WSW 15.0 mph - N/A   Clear
1:55 PM 46.4 °F 41.9 °F 28.4 °F 50% 29.78 in 10.0 mi West 9.2 mph - N/A   Clear
2:15 PM 46.4 °F 40.7 °F 26.6 °F 46% 29.77 in 10.0 mi WSW 12.7 mph - N/A   Clear
2:35 PM 44.6 °F 39.7 °F 28.4 °F 53% 29.78 in 10.0 mi WSW 9.2 mph - N/A   Clear
2:55 PM 46.4 °F 41.1 °F 28.4 °F 50% 29.78 in 10.0 mi WSW 11.5 mph - N/A   Clear
3:15 PM 46.4 °F 41.5 °F 28.4 °F 50% 29.78 in 10.0 mi WSW 10.4 mph - N/A   Clear
3:35 PM 46.4 °F 40.7 °F 30.2 °F 53% 29.78 in 10.0 mi WSW 12.7 mph - N/A   Clear
3:55 PM 44.6 °F 38.8 °F 28.4 °F 53% 29.79 in 10.0 mi WSW 11.5 mph - N/A   Clear
4:14 PM 44.6 °F 39.2 °F 28.4 °F 53% 29.80 in 10.0 mi WSW 10.4 mph 16.1 mph N/A   Clear
4:35 PM 42.8 °F 37.0 °F 28.4 °F 57% 29.81 in 10.0 mi WSW 10.4 mph - N/A   Clear
4:55 PM 42.8 °F 38.0 °F 28.4 °F 57% 29.81 in 10.0 mi WSW 8.1 mph - N/A   Clear
5:14 PM 39.2 °F - 28.4 °F 65% 29.81 in 10.0 mi Calm Calm - N/A   Clear
5:35 PM 37.4 °F - 28.4 °F 70% 29.82 in 10.0 mi Calm Calm - N/A   Clear
5:55 PM 39.2 °F - 30.2 °F 70% 29.82 in 10.0 mi Calm Calm - N/A   Clear
6:15 PM 39.2 °F - 28.4 °F 65% 29.82 in 10.0 mi Calm Calm - N/A   Clear
6:35 PM 39.2 °F 33.0 °F 28.4 °F 65% 29.83 in 10.0 mi SW 9.2 mph - N/A   Clear
6:55 PM 39.2 °F 32.5 °F 28.4 °F 65% 29.83 in 10.0 mi SW 10.4 mph - N/A   Clear
7:15 PM 37.4 °F 30.3 °F 30.2 °F 75% 29.83 in 10.0 mi SW 10.4 mph - N/A   Clear
7:35 PM 37.4 °F - 28.4 °F 70% 29.84 in 10.0 mi Calm Calm - N/A   Clear
7:55 PM 37.4 °F - 30.2 °F 75% 29.84 in 10.0 mi Calm Calm - N/A   Clear
8:15 PM 35.6 °F - 28.4 °F 75% 29.83 in 10.0 mi Calm Calm - N/A   Clear
8:35 PM 35.6 °F - 28.4 °F 75% 29.83 in 10.0 mi Calm Calm - N/A   Clear
8:55 PM 35.6 °F - 28.4 °F 75% 29.83 in 10.0 mi Calm Calm - N/A   Clear
9:35 PM 35.6 °F - 28.4 °F 75% 29.82 in 10.0 mi Calm Calm - N/A   Clear
9:55 PM 37.4 °F - 30.2 °F 75% 29.81 in 10.0 mi Calm Calm - N/A   Clear
10:15 PM 37.4 °F - 28.4 °F 70% 29.81 in 10.0 mi Calm Calm - N/A   Clear
10:34 PM 37.4 °F - 28.4 °F 70% 29.81 in 10.0 mi Calm Calm - N/A   Clear
10:55 PM 37.4 °F - 28.4 °F 70% 29.81 in 10.0 mi Calm Calm - N/A   Clear
11:15 PM 37.4 °F - 28.4 °F 70% 29.80 in 10.0 mi Calm Calm - N/A   Clear
11:35 PM 37.4 °F - 28.4 °F 70% 29.80 in 10.0 mi Calm Calm - N/A   Clear
11:55 PM 37.4 °F - 28.4 °F 70% 29.79 in 10.0 mi Calm Calm - N/A   Clear